[[{"header":{"parameterUnit":"m.s-1","parameterCategory":1,"la1":30.2991,"la2":30.254,"lo1":-89.0895,"lo2":-89.0444,"dy":0.0017,"dx":0.0017,"nx":28,"ny":28,"refTime":"2024-06-02T03:00:00:Z","depth":0,"parameterNumber":2,"parameterNumberName":"U-component_of_WINDS"},"data":[0,0,0,0,0,0,0,0,0,0,0,0,0,0,0,0,0,0,0,0,0,0,0,0,0,0,0,0,0,0,0,0,0,0,0,0,0,0,0,0,0,0,0,0,0,0,0,0,0,0,0,0,0,0,0,0,0,0,-1.6428,-1.6429,0,-1.6487,-1.6487,-1.6488,-1.6486,-1.6486,-1.6485,-1.6484,-1.655,-1.6552,-1.6554,0,0,0,0,0,0,0,0,0,0,0,0,0,-1.6322,-1.6324,-1.6428,-1.6429,-1.643,-1.6487,-1.6487,-1.6488,-1.6487,-1.6486,-1.6485,-1.6484,-1.6549,-1.6552,-1.6555,0,0,0,0,0,0,0,0,0,0,0,0,0,-1.6373,-1.6325,-1.6428,-1.6436,-1.6437,-1.6486,-1.6487,-1.6488,-1.6487,-1.6486,-1.6484,-1.6483,-1.6548,-1.6551,-1.6555,-1.6603,0,0,-1.6567,-1.6568,0,0,0,0,0,0,0,0,-1.637,-1.6377,-1.6434,-1.6435,-1.6437,-1.6478,-1.6474,-1.6527,-1.6487,-1.6468,-1.6484,-1.6483,-1.6527,-1.6532,-1.6546,-1.6606,-1.6609,-1.6567,-1.6569,-1.6571,-1.6572,0,0,0,0,0,0,0,-1.6367,-1.6375,-1.6452,-1.6435,-1.6436,-1.6438,-1.6444,-1.6484,-1.6504,-1.647,-1.647,-1.6476,-1.6528,-1.6543,-1.6548,-1.661,-1.6567,-1.657,-1.6572,-1.6574,-1.6714,-1.6715,0,0,0,0,0,0,-1.6361,-1.6372,-1.645,-1.6453,-1.64,-1.6441,-1.6448,-1.6466,-1.6503,-1.6508,-1.6477,-1.6476,-1.6537,-1.6543,-1.655,-1.6609,-1.6571,-1.6574,-1.6576,-1.6712,-1.6714,-1.6716,0,0,0,0,0,0,-1.6358,-1.6368,-1.6447,-1.6413,-1.6423,-1.6444,-1.6465,-1.6468,-1.6483,-1.6509,-1.6513,-1.6488,-1.6536,-1.6545,-1.659,-1.6612,-1.6576,-1.6579,-1.6711,-1.6713,-1.6715,-1.6727,0,0,0,0,0,0,-1.6355,-1.6367,-1.6383,-1.6413,-1.6425,-1.6484,-1.6466,-1.647,-1.6488,-1.6487,-1.6521,-1.6525,-1.6536,-1.6584,-1.6594,-1.6616,-1.6582,-1.6709,-1.6712,-1.6714,-1.6725,-1.673,-1.6734,0,0,0,0,0,-1.6352,-1.6385,-1.6384,-1.6394,-1.6445,-1.6485,-1.6492,-1.6502,-1.649,-1.6508,-1.6526,-1.6524,-1.6608,-1.6589,-1.6599,-1.6623,-1.6707,-1.6711,-1.6714,-1.6723,-1.6729,-1.6734,0,0,0,0,0,0,-1.6359,-1.6389,-1.6388,-1.6432,-1.6456,-1.6484,-1.6507,-1.6507,-1.6536,-1.6534,-1.6548,-1.6555,-1.66,-1.6617,-1.6595,-1.6673,-1.6657,-1.6662,-1.666,-1.6666,-1.667,-1.6665,-1.6585,0,0,0,0,0,-1.6366,-1.6393,-1.6419,-1.6455,-1.6467,-1.6485,-1.6503,-1.6509,-1.6535,-1.6545,-1.6566,-1.6593,-1.6625,-1.6647,-1.6678,-1.6728,-1.6736,-1.675,-1.6754,-1.6758,-1.6762,-1.6792,-1.6799,-1.6727,-1.6726,-1.6726,0,0,-1.638,-1.64,-1.6417,-1.6457,-1.6476,-1.6507,-1.6494,-1.6526,-1.655,-1.6551,-1.6594,-1.661,-1.6642,-1.669,-1.6712,-1.6705,-1.6785,-1.6762,-1.6764,-1.6767,-1.6796,-1.6803,-1.6809,-1.6729,-1.6728,-1.6728,0,0,-1.6421,-1.6438,-1.6471,-1.649,-1.6519,-1.6531,-1.6539,-1.6569,-1.6579,-1.6622,-1.6624,-1.6654,-1.6709,-1.6732,-1.6751,-1.6803,-1.6804,-1.6814,-1.6836,-1.6865,-1.687,-1.6875,-1.6895,-1.6902,-1.6818,-1.6818,-1.6818,0,-1.6435,-1.6479,-1.6488,-1.6521,-1.654,-1.6541,-1.6576,-1.6595,-1.6634,-1.6648,-1.6639,-1.6709,-1.673,-1.6784,-1.6797,-1.6812,-1.6824,-1.6809,-1.6868,-1.6874,-1.6879,-1.6898,-1.6905,-1.6819,-1.6819,-1.6819,-1.6819,0,-1.6496,-1.6527,-1.655,-1.6586,-1.6608,-1.6641,-1.6658,-1.6679,-1.6684,-1.6698,-1.6744,-1.6769,-1.6807,-1.682,-1.6826,-1.6876,-1.6871,-1.6865,-1.6849,-1.6886,-1.6905,-1.6912,-1.6821,-1.682,-1.682,-1.682,0,0,-1.6542,-1.6583,-1.6591,-1.6608,-1.6641,-1.6666,-1.6702,-1.6737,-1.6755,-1.6783,-1.6814,-1.6862,-1.6857,-1.6879,-1.6887,-1.6912,-1.6954,-1.6904,-1.6905,-1.6913,-1.7013,-1.7017,-1.7025,-1.6955,-1.6956,-1.6957,-1.7011,0,-1.6587,-1.6646,-1.6657,-1.671,-1.674,-1.6743,-1.6774,-1.6799,-1.6814,-1.6843,-1.6861,-1.6894,-1.6885,-1.6898,-1.6924,-1.6943,-1.6974,-1.694,-1.6986,-1.6987,-1.6977,-1.7035,-1.7038,-1.7087,-1.7018,-1.7019,-1.702,0,-1.6646,-1.6674,-1.673,-1.676,-1.6773,-1.68,-1.6834,-1.6862,-1.6892,-1.6901,-1.6926,-1.6932,-1.6971,-1.6954,-1.701,-1.6986,-1.7006,-1.7019,-1.7021,-1.7026,-1.7005,-1.7041,-1.7103,-1.7111,-1.7031,-1.703,-1.7029,0,-1.6675,-1.6726,-1.6767,-1.6781,-1.6817,-1.6837,-1.6854,-1.6882,-1.6903,-1.6934,-1.6948,-1.6984,-1.7004,-1.7032,-1.7049,-1.7035,-1.7104,-1.7088,-1.7115,-1.7114,-1.7129,-1.7128,-1.7195,-1.7142,-1.7141,-1.7141,-1.7141,0,-1.6724,-1.6758,-1.678,-1.6805,-1.6844,-1.6857,-1.6897,-1.6914,-1.6939,-1.6969,-1.6976,-1.7004,-1.7024,-1.7057,-1.707,-1.7116,-1.7124,-1.7135,-1.7138,-1.7134,-1.7133,-1.7147,-1.7144,-1.7143,-1.7143,-1.7143,-1.7142,0,-1.6762,-1.6778,-1.6822,-1.6853,-1.6862,-1.689,-1.6918,-1.6943,-1.6959,-1.6997,-1.7007,-1.7032,-1.7071,-1.709,-1.7139,-1.7148,-1.7199,-1.72,-1.7188,-1.719,-1.7216,-1.7213,-1.7295,-1.7307,-1.7245,-1.7245,-1.7246,0,-1.6792,-1.6818,-1.6852,-1.6872,-1.6888,-1.692,-1.6941,-1.6957,-1.6979,-1.7016,-1.7038,-1.7077,-1.7108,-1.717,-1.7195,-1.7232,-1.7235,-1.7261,-1.7241,-1.7236,-1.7236,-1.7234,-1.7238,-1.7264,-1.7265,-1.7265,-1.7266,0,-1.6843,-1.685,-1.688,-1.6913,-1.6938,-1.6965,-1.6992,-1.7009,-1.7029,-1.7055,-1.7093,-1.7118,-1.7167,-1.7206,-1.7246,-1.7266,-1.7271,-1.7272,-1.7281,-1.7277,-1.7269,-1.7274,-1.7198,-1.727,-1.727,-1.7269,-1.7269,-1.7269,-1.6879,-1.6903,-1.693,-1.6964,-1.6986,-1.7011,-1.7037,-1.7056,-1.7088,-1.7128,-1.7136,-1.7178,-1.721,-1.7264,-1.7285,-1.732,-1.7314,-1.7326,-1.7329,-1.7332,-1.7333,-1.7263,-1.7327,-1.7327,-1.7327,-1.7327,-1.7327,0,-1.6931,-1.6949,-1.698,-1.7017,-1.7044,-1.7044,-1.7075,-1.7098,-1.7134,-1.7163,-1.7194,-1.724,-1.7278,-1.7306,-1.7346,-1.7368,-1.7371,-1.7378,-1.7377,-1.7382,-1.7335,-1.7324,-1.7375,-1.7375,-1.7375,-1.7375,-1.7375,-1.7375,-1.6961,-1.7002,-1.7013,-1.7066,-1.7085,-1.7124,-1.7142,-1.7167,-1.719,-1.724,-1.7271,-1.7289,-1.7318,-1.736,-1.7397,-1.7404,-1.7419,-1.7426,-1.7434,-1.739,-1.7385,-1.738,-1.737,-1.7429,-1.7429,-1.7477,-1.7478,-1.7478]},{"header":{"parameterUnit":"m.s-1","parameterCategory":1,"la1":30.2991,"la2":30.254,"lo1":-89.0895,"lo2":-89.0444,"dy":0.0017,"dx":0.0017,"nx":28,"ny":28,"refTime":"2024-06-02T03:00:00:Z","depth":0,"parameterNumber":3,"parameterNumberName":"V-component_of_WINDS"},"data":[0,0,0,0,0,0,0,0,0,0,0,0,0,0,0,0,0,0,0,0,0,0,0,0,0,0,0,0,0,0,0,0,0,0,0,0,0,0,0,0,0,0,0,0,0,0,0,0,0,0,0,0,0,0,0,0,0,0,0.5211,0.5212,0,0.5232,0.5232,0.5232,0.5248,0.5248,0.5248,0.5249,0.527,0.527,0.5271,0,0,0,0,0,0,0,0,0,0,0,0,0,0.5185,0.5185,0.5211,0.5212,0.5212,0.5232,0.5232,0.5233,0.5248,0.5248,0.5249,0.5249,0.527,0.527,0.5271,0,0,0,0,0,0,0,0,0,0,0,0,0,0.52,0.5185,0.5211,0.5222,0.5223,0.5232,0.5232,0.5233,0.5248,0.5248,0.5249,0.5249,0.5269,0.527,0.5271,0.527,0,0,0.5273,0.5273,0,0,0,0,0,0,0,0,0.5199,0.5201,0.522,0.5221,0.5223,0.5238,0.5231,0.5245,0.5248,0.5239,0.5249,0.5249,0.5259,0.526,0.5264,0.5271,0.5272,0.5273,0.5273,0.5273,0.5274,0,0,0,0,0,0,0,0.5198,0.52,0.522,0.5221,0.5222,0.5226,0.5228,0.5234,0.5247,0.524,0.5241,0.5243,0.526,0.5263,0.5264,0.5272,0.5273,0.5273,0.5274,0.5274,0.528,0.528,0,0,0,0,0,0,0.5195,0.5199,0.5219,0.522,0.5211,0.5226,0.5229,0.5233,0.5247,0.525,0.5243,0.5244,0.5262,0.5264,0.5265,0.5265,0.5273,0.5274,0.5274,0.528,0.528,0.5279,0,0,0,0,0,0,0.5195,0.5197,0.5218,0.521,0.5213,0.5226,0.5231,0.5233,0.5237,0.525,0.5252,0.5244,0.5262,0.5264,0.5269,0.5266,0.5274,0.5275,0.528,0.528,0.528,0.5266,0,0,0,0,0,0,0.5194,0.5197,0.5197,0.521,0.5213,0.5221,0.523,0.5233,0.5238,0.5239,0.5251,0.5254,0.5263,0.5268,0.5269,0.5267,0.5275,0.5281,0.528,0.528,0.5266,0.5265,0.5264,0,0,0,0,0,0.5193,0.5192,0.5197,0.5199,0.5214,0.5221,0.5223,0.5233,0.5237,0.5238,0.5246,0.5253,0.5266,0.5268,0.527,0.5268,0.5281,0.528,0.528,0.5267,0.5265,0.5264,0,0,0,0,0,0,0.5179,0.5194,0.52,0.5203,0.5211,0.5224,0.5225,0.5231,0.5238,0.5239,0.5251,0.5254,0.5257,0.5263,0.5265,0.5268,0.5274,0.5274,0.5264,0.5262,0.5261,0.5259,0.5276,0,0,0,0,0,0.5176,0.5181,0.5194,0.5196,0.52,0.5211,0.5215,0.5222,0.523,0.5234,0.5242,0.525,0.5256,0.5259,0.5266,0.5267,0.527,0.5267,0.5265,0.5264,0.5264,0.5265,0.5263,0.5278,0.5278,0.5278,0,0,0.5171,0.518,0.5182,0.5193,0.52,0.5205,0.5214,0.5218,0.5222,0.5234,0.5239,0.5245,0.5255,0.5258,0.5259,0.5263,0.526,0.5264,0.5262,0.5263,0.5264,0.5263,0.5261,0.5277,0.5278,0.5278,0,0,0.5163,0.5171,0.5173,0.5179,0.5189,0.5197,0.5197,0.5209,0.5214,0.5218,0.5228,0.5232,0.5242,0.5248,0.5252,0.5246,0.5253,0.5247,0.524,0.524,0.5239,0.5238,0.5236,0.5235,0.5247,0.5247,0.5247,0,0.5155,0.5163,0.5173,0.5177,0.5181,0.5192,0.5194,0.52,0.5211,0.5214,0.5218,0.523,0.5237,0.5241,0.5239,0.5243,0.5243,0.5246,0.5239,0.5238,0.5237,0.5235,0.5234,0.5246,0.5246,0.5246,0.5246,0,0.5152,0.5157,0.5157,0.5168,0.5172,0.5175,0.5185,0.5189,0.5195,0.5202,0.5206,0.5215,0.5223,0.5224,0.5231,0.5229,0.5231,0.5236,0.5243,0.5235,0.5233,0.5232,0.5245,0.5245,0.5246,0.5246,0,0,0.5137,0.5153,0.5153,0.5157,0.5168,0.5172,0.5175,0.5182,0.5185,0.5192,0.5194,0.5202,0.5207,0.5212,0.5219,0.5219,0.5213,0.5225,0.5225,0.5222,0.5211,0.5207,0.5206,0.5217,0.5217,0.5217,0.521,0,0.5131,0.5137,0.5146,0.5149,0.5153,0.5164,0.5166,0.5173,0.5179,0.5184,0.5191,0.5196,0.5202,0.5205,0.5206,0.5213,0.5211,0.5214,0.522,0.522,0.5217,0.5205,0.52,0.5193,0.5209,0.5209,0.5209,0,0.5126,0.5132,0.5135,0.5145,0.5147,0.5149,0.5156,0.516,0.5168,0.5173,0.5177,0.5185,0.5188,0.5194,0.5198,0.52,0.5203,0.5207,0.5207,0.5208,0.5214,0.5205,0.5192,0.519,0.5208,0.5208,0.5208,0,0.5114,0.5123,0.5126,0.513,0.5142,0.5143,0.5148,0.5156,0.5159,0.5165,0.5168,0.5174,0.5177,0.5182,0.5191,0.5194,0.5194,0.52,0.5197,0.5197,0.5197,0.5197,0.5184,0.5199,0.5199,0.5199,0.5199,0,0.5107,0.5108,0.5121,0.5123,0.5125,0.5135,0.5136,0.5142,0.5149,0.5152,0.5161,0.5163,0.5174,0.5178,0.5185,0.5187,0.5189,0.5192,0.5194,0.5192,0.5191,0.5194,0.5194,0.5199,0.5199,0.5199,0.5199,0,0.5094,0.5103,0.5107,0.5117,0.512,0.5121,0.513,0.5132,0.5138,0.5142,0.5143,0.5153,0.5158,0.5167,0.5175,0.5179,0.518,0.5183,0.5177,0.5178,0.5175,0.5175,0.5163,0.5161,0.5177,0.5177,0.5177,0,0.5089,0.5091,0.5101,0.5103,0.5108,0.5112,0.5115,0.5125,0.5128,0.5136,0.5137,0.5142,0.5147,0.5154,0.5162,0.5168,0.5171,0.5166,0.5172,0.5169,0.5171,0.5171,0.5171,0.5165,0.5165,0.5165,0.5165,0,0.5079,0.5083,0.5088,0.5093,0.5097,0.5102,0.5108,0.5109,0.512,0.5123,0.5128,0.5131,0.5138,0.5143,0.515,0.5155,0.5161,0.5163,0.5162,0.516,0.5156,0.5158,0.5174,0.5163,0.5163,0.5163,0.5163,0.5163,0.507,0.5071,0.5079,0.5083,0.5088,0.5093,0.5095,0.5102,0.5106,0.5112,0.5117,0.5121,0.5128,0.5137,0.5142,0.5145,0.5148,0.5148,0.5148,0.5147,0.5146,0.5155,0.5146,0.5146,0.5146,0.5146,0.5147,0,0.506,0.5065,0.5069,0.5076,0.508,0.5085,0.5091,0.5094,0.5097,0.5103,0.5107,0.5112,0.5117,0.5125,0.513,0.5131,0.5134,0.5132,0.5132,0.5133,0.5143,0.5143,0.5129,0.5129,0.5129,0.5129,0.5129,0.5129,0.5056,0.5058,0.5062,0.5067,0.5072,0.5076,0.5079,0.5083,0.5088,0.5093,0.5097,0.5102,0.5108,0.5114,0.5118,0.512,0.5122,0.5119,0.5122,0.5131,0.5133,0.5134,0.5134,0.5119,0.5119,0.5112,0.5111,0.5111]}]]